Location: Jefferson Observatory
(34.1602°N, 83.6058°W)
Time: 12:30:16
(UTC-05:00)

Amateur Radio Satellites - All Passes

Search period start: 17 November 2017 12:00
Search period end: 18 November 2017 12:00
Location: Jefferson Observatory, 34.1602°N, 83.6058°W

Satellite Date Start Highest point End Downlink Frequencies (MHz)
Time Altitude Azimuth
QB50P2 17 Nov 12:08:41 12:12:48 47° 260° (W) 12:16:55 145.880/145.840
ESTCUBE 1 17 Nov 12:15:34 12:20:05 71° 284° (WNW) 12:24:35 437.505/2401.250
BEESAT 3 17 Nov 12:36:15 12:39:16 21° 53° (NE) 12:42:13 437.485
BUGSAT 1 17 Nov 12:40:14 12:44:21 57° 75° (ENE) 12:48:29 437.445
LO-87 17 Nov 12:43:50 12:45:57 15° 290° (WNW) 12:48:03 145.935 - 145.965
SPROUT 17 Nov 12:51:12 12:55:25 65° 101° (E) 12:59:36 437.525
PCSat 17 Nov 12:52:46 12:54:17 11° 258° (WSW) 12:55:47 145.827
VELOX 1 17 Nov 12:55:49 13:00:04 43° 99° (E) 13:04:17 145.980
DUCHIFAT 1 17 Nov 13:07:34 13:09:56 15° 266° (W) 13:12:18 145.980
EO-79 17 Nov 13:11:08 13:11:47 10° 268° (W) 13:12:26 145.935-145.965
FALCONSAT 3 17 Nov 13:22:36 13:26:18 78° 352° (N) 13:30:00 435.103
Gurwin Techsat 1B 17 Nov 13:23:33 13:28:45 60° 73° (ENE) 13:33:59 435.225
AO-7 17 Nov 13:29:15 13:34:21 18° 55° (NE) 13:39:28 .
Oscar 19 17 Nov 13:33:25 13:38:31 75° 257° (WSW) 13:43:39 437.125/150
BEESAT 2 17 Nov 13:36:40 13:40:06 26° 55° (NE) 13:43:29 435.950
AO-85 17 Nov 13:39:13 13:42:17 17° 51° (NE) 13:45:27 145.980
DX 1 17 Nov 13:55:18 13:59:29 43° 99° (E) 14:03:38 434.975-435.025
50 SAT 17 Nov 14:12:51 14:16:05 79° 285° (WNW) 14:19:17 437.505
BEESAT 3 17 Nov 14:13:28 14:16:44 26° 248° (WSW) 14:19:56 437.485
M-CUBED/EXP-1 PRIME 17 Nov 14:25:45 14:29:05 63° 255° (WSW) 14:32:39 437.505
O/OREOS (USA 219) 17 Nov 14:28:34 14:33:09 85° 108° (ESE) 14:37:47 437.305
VELOX 1 17 Nov 14:33:40 14:36:05 15° 294° (WNW) 14:38:30 145.980
UKube-1 17 Nov 14:46:34 14:50:54 75° 283° (WNW) 14:55:10 .
FALCONSAT 3 17 Nov 15:01:48 15:05:30 81° 9° (N) 15:09:13 435.103
MOZHAYETS 4 17 Nov 15:02:02 15:05:45 24° 96° (E) 15:09:27
Gurwin Techsat 1B 17 Nov 15:06:28 15:09:00 13° 268° (W) 15:11:34 435.225
BEESAT 2 17 Nov 15:14:39 15:17:38 20° 250° (WSW) 15:20:34 435.950
ITAMSAT 1 17 Nov 15:16:21 15:21:28 59° 73° (ENE) 15:26:36 435.822/435.867
AO-7 17 Nov 15:17:43 15:26:01 88° 252° (WSW) 15:34:21 .
AO-85 17 Nov 15:18:13 15:22:57 57° 244° (WSW) 15:27:59 145.980
DX 1 17 Nov 15:32:56 15:35:14 14° 294° (WNW) 15:37:33 434.975-435.025
BEESAT 17 Nov 15:38:36 15:43:11 47° 100° (E) 15:47:45 436.000
ITUPSAT 1 17 Nov 15:45:17 15:49:57 55° 101° (E) 15:54:35 437.325
NO-84 17 Nov 15:56:53 16:00:14 38° 126° (SE) 16:03:52 435.350 FM
YUBILEINY 17 Nov 16:00:57 16:06:05 16° 67° (ENE) 16:11:11 435.215
DOVE 4 17 Nov 16:01:45 16:05:34 23° 68° (ENE) 16:09:33 437.250
CUBESAT XI-V 17 Nov 16:38:27 16:43:06 64° 101° (E) 16:47:45 437.345
MOZHAYETS 4 17 Nov 16:39:02 16:42:47 26° 290° (WNW) 16:46:32
FALCONSAT 3 17 Nov 16:41:02 16:44:29 38° 203° (SSW) 16:47:56 435.103
ITAMSAT 1 17 Nov 16:58:42 17:01:14 14° 267° (W) 17:03:46 435.822/435.867
XW-2F 17 Nov 17:02:45 17:04:36 13° 69° (ENE) 17:06:29 145.980 - 146.000
JUGNU 17 Nov 17:10:22 17:14:02 17° 172° (S) 17:17:43 437.505
AO-7 17 Nov 17:15:39 17:19:37 14° 268° (W) 17:23:36 .
BEESAT 17 Nov 17:17:48 17:20:31 15° 294° (WNW) 17:23:13 436.000
KKS-1 17 Nov 17:24:15 17:28:29 41° 99° (E) 17:32:41 437.445
ITUPSAT 1 17 Nov 17:25:01 17:27:15 13° 295° (WNW) 17:29:28 437.325
NO-84 17 Nov 17:34:44 17:37:42 21° 324° (NW) 17:40:50 435.350 FM
KAITUO 1B 17 Nov 17:36:35 17:39:44 28° 73° (ENE) 17:42:54 145.475/437.950
DOVE 4 17 Nov 17:38:39 17:42:58 33° 264° (W) 17:47:33 437.250
XW-2D 17 Nov 17:40:06 17:43:42 48° 76° (ENE) 17:47:19 145.860 - 145.880
HO-68 17 Nov 17:49:03 17:55:01 29° 64° (ENE) 18:00:59 435.675
XW-2B 17 Nov 17:54:38 17:58:21 75° 77° (ENE) 18:02:05 145.730 - 145.750
YUBILEINY 17 Nov 17:55:04 18:03:58 87° 265° (W) 18:12:47 435.215
CUTE-I 17 Nov 17:57:30 18:02:47 66° 74° (ENE) 18:08:07 437.470
STARS 17 Nov 18:00:32 18:04:41 40° 99° (E) 18:08:47 437.465
RS-15 17 Nov 18:08:18 18:18:14 30° 103° (ESE) 18:28:09 29.354- 29.394
LilacSat-2 17 Nov 18:16:49 18:20:25 45° 261° (W) 18:24:03 437.200
CUBESAT XI-V 17 Nov 18:18:32 18:19:53 11° 295° (WNW) 18:21:14 437.345
XW-2C 17 Nov 18:20:08 18:23:42 44° 261° (W) 18:27:17 145.795 - 145.815
CUTE 1.7 + AOD 2 17 Nov 18:26:47 18:30:36 36° 73° (ENE) 18:34:28 437.475
NUDT-PHONESAT 17 Nov 18:28:06 18:31:39 53° 260° (W) 18:35:13 437.300
XW-2F 17 Nov 18:35:07 18:38:23 30° 262° (W) 18:41:42 145.980 - 146.000
CUBEBUG 2 17 Nov 18:39:40 18:43:48 32° 72° (ENE) 18:47:50 437.445
SRMSAT 17 Nov 18:48:12 18:50:26 12° 165° (SSE) 18:52:40 437.500
JUGNU 17 Nov 18:58:19 19:02:21 19° 182° (S) 19:06:23 437.505
KKS-1 17 Nov 19:02:05 19:04:39 15° 293° (WNW) 19:07:12 437.445
AO-73 17 Nov 19:04:32 19:06:45 14° 68° (ENE) 19:08:57 145.935
SEEDS 17 Nov 19:05:07 19:09:13 64° 76° (ENE) 19:13:20 437.485
STRAND 1 17 Nov 19:08:34 19:12:28 22° 95° (E) 19:16:20 437.568
KAITUO 1B 17 Nov 19:11:49 19:13:43 14° 266° (W) 19:15:37 145.475/437.950
XW-2A 17 Nov 19:21:25 19:24:35 43° 75° (ENE) 19:27:45 145.665 - 145.685
AAUSAT CUBESAT 2 17 Nov 19:24:46 19:28:39 42° 75° (ENE) 19:32:34 437.432
Oscar 11 17 Nov 19:25:17 19:27:51 16° 68° (ENE) 19:30:25 .
HO-68 17 Nov 19:35:32 19:42:23 47° 260° (W) 19:49:17 435.675
STARS 17 Nov 19:38:07 19:40:38 15° 293° (WNW) 19:43:08 437.465
CUTE-I 17 Nov 19:41:04 19:43:13 12° 268° (W) 19:45:22 437.470
ZACube-1 17 Nov 19:44:45 19:48:59 48° 75° (ENE) 19:53:08 437.345
UWE-3 17 Nov 19:44:46 19:49:19 83° 257° (WSW) 19:53:46 435.000/436.395/437.385
YUBILEINY 17 Nov 19:55:26 19:59:22 14° 282° (WNW) 20:03:18 435.215
CUTE 1.7 + AOD 2 17 Nov 20:04:16 20:06:31 14° 267° (W) 20:08:48 437.475
CUBEBUG 2 17 Nov 20:16:55 20:20:22 20° 265° (W) 20:23:46 437.445
RS-15 17 Nov 20:17:28 20:29:42 70° 302° (WNW) 20:42:00 29.354- 29.394
SRMSAT 17 Nov 20:34:49 20:38:53 19° 175° (S) 20:42:58 437.500
DELFI C3 17 Nov 20:34:51 20:37:30 18° 70° (ENE) 20:40:11 145.870
AO-73 17 Nov 20:38:26 20:42:36 42° 261° (W) 20:46:41 145.935
FO-29 17 Nov 20:39:03 20:46:35 47° 98° (E) 20:53:40 435.910
STRAND 1 17 Nov 20:47:02 20:51:40 36° 289° (WNW) 20:56:16 437.568
JUGNU 17 Nov 20:47:43 20:50:38 14° 192° (SSW) 20:53:34 437.505
Max Valier Satellite 17 Nov 20:56:50 20:59:37 21° 71° (ENE) 21:02:23 145.860
Oscar 11 17 Nov 20:59:41 21:03:38 36° 262° (W) 21:07:37 .
nSIGHT-1 17 Nov 21:02:48 21:04:45 15° 128° (SE) 21:06:43 .
AAUSAT CUBESAT 2 17 Nov 21:02:52 21:04:16 11° 268° (W) 21:05:41 437.432
EO-88 17 Nov 21:04:58 21:07:27 18° 71° (ENE) 21:09:56 145.990 - 145.960
TIGRISAT 17 Nov 21:15:52 21:16:21 10° 92° (E) 21:16:50 435.000
ZACube-1 17 Nov 21:23:50 21:25:26 12° 267° (W) 21:27:00 437.345
ISS 17 Nov 21:32:59 21:35:48 27° 130° (SE) 21:38:37 437.550
DELFI C3 17 Nov 22:08:40 22:12:01 26° 263° (W) 22:15:23 145.870
SRMSAT 17 Nov 22:23:17 22:27:23 19° 185° (S) 22:31:29 437.500
FO-29 17 Nov 22:24:25 22:31:12 33° 294° (WNW) 22:37:42 435.910
Max Valier Satellite 17 Nov 22:30:42 22:33:19 18° 265° (W) 22:35:56 145.860
SO-50 17 Nov 22:31:48 22:36:05 49° 115° (ESE) 22:40:25 436.795
NO-84 17 Nov 22:34:57 22:35:25 10° 27° (NNE) 22:35:53 435.350 FM
RS-15 17 Nov 22:36:04 22:44:54 22° 327° (NNW) 22:53:42 29.354- 29.394
nSIGHT-1 17 Nov 22:37:44 22:40:45 36° 322° (NW) 22:43:45 .
EO-88 17 Nov 22:38:07 22:40:55 21° 264° (W) 22:43:43 145.990 - 145.960
UNISAT 6 17 Nov 22:43:40 22:47:51 53° 285° (WNW) 22:51:58 437.425
TIGRISAT 17 Nov 22:49:10 22:53:18 50° 286° (WNW) 22:57:24 435.000
ISS 17 Nov 23:09:33 23:12:14 23° 325° (NW) 23:14:56 437.550
ESTCUBE 1 17 Nov 23:10:59 23:15:23 65° 75° (ENE) 23:19:50 437.505/2401.250
LO-87 17 Nov 23:14:13 23:17:49 72° 259° (WSW) 23:21:26 145.935 - 145.965
PRISM 17 Nov 23:19:59 23:24:06 61° 285° (WNW) 23:28:11 437.425
EO-79 17 Nov 23:22:35 23:23:30 11° 92° (E) 23:24:24 145.935-145.965
NANOSAT C BR1 17 Nov 23:28:18 23:29:25 11° 92° (E) 23:30:33 145.865
POLYITAN 1 17 Nov 23:35:13 23:37:49 16° 94° (E) 23:40:24 437.675
SPROUT 17 Nov 23:40:45 23:44:29 30° 72° (ENE) 23:48:13 437.525
VELOX 1 17 Nov 23:49:37 23:53:12 25° 70° (ENE) 23:56:48 145.980
QB50P2 17 Nov 23:57:09 00:00:59 34° 98° (E) 00:04:47 145.880/145.840
PCSat 18 Nov 00:03:10 00:06:22 16° 104° (ESE) 00:09:34 145.827
AIST 2D 18 Nov 00:03:36 00:07:02 50° 284° (WNW) 00:10:26 435.315
NO-84 18 Nov 00:09:28 00:13:38 51° 44° (NE) 00:17:41 435.350 FM
SRMSAT 18 Nov 00:13:30 00:15:50 12° 195° (SSW) 00:18:11 437.500
SO-50 18 Nov 00:14:01 00:16:48 16° 311° (NW) 00:19:36 436.795
50 SAT 18 Nov 00:37:30 00:39:21 14° 70° (ENE) 00:41:12 437.505
O/OREOS (USA 219) 18 Nov 00:42:24 00:46:57 86° 66° (ENE) 00:51:27 437.305
DX 1 18 Nov 00:47:29 00:50:58 24° 69° (ENE) 00:54:28 434.975-435.025
DUCHIFAT 1 18 Nov 00:52:52 00:57:02 70° 283° (WNW) 01:01:08 145.980
EO-79 18 Nov 00:55:26 00:59:28 48° 286° (WNW) 01:03:28 145.935-145.965
RS-15 18 Nov 01:00:14 01:04:34 12° 5° (N) 01:08:50 29.354- 29.394
NANOSAT C BR1 18 Nov 01:01:20 01:05:19 46° 286° (WNW) 01:09:19 145.865
POLYITAN 1 18 Nov 01:09:53 01:13:37 32° 288° (WNW) 01:17:20 437.675
SPROUT 18 Nov 01:17:21 01:20:21 18° 265° (W) 01:23:21 437.525
VELOX 1 18 Nov 01:25:55 01:29:30 24° 264° (W) 01:33:08 145.980
QB50P2 18 Nov 01:33:53 01:36:27 16° 292° (WNW) 01:38:59 145.880/145.840
UKube-1 18 Nov 01:36:53 01:41:05 54° 74° (ENE) 01:45:19 .
Gurwin Techsat 1B 18 Nov 01:43:51 01:48:35 32° 97° (E) 01:53:17 435.225
PCSat 18 Nov 01:43:56 01:49:13 55° 299° (WNW) 01:54:33 145.827
NO-84 18 Nov 01:48:00 01:50:37 16° 239° (WSW) 01:53:09 435.350 FM
Oscar 19 18 Nov 01:48:42 01:53:44 52° 101° (E) 01:58:44 437.125/150
BUGSAT 1 18 Nov 02:00:48 02:04:40 46° 286° (WNW) 02:08:30 437.445
MOZHAYETS 4 18 Nov 02:01:11 02:03:55 16° 67° (ENE) 02:06:40
M-CUBED/EXP-1 PRIME 18 Nov 02:08:14 02:10:24 13° 98° (E) 02:12:33 437.505
50 SAT 18 Nov 02:08:48 02:11:15 20° 264° (W) 02:13:43 437.505
DX 1 18 Nov 02:23:27 02:27:00 24° 263° (W) 02:30:34 434.975-435.025
BEESAT 18 Nov 02:41:17 02:45:37 36° 72° (ENE) 02:49:58 436.000
ITUPSAT 1 18 Nov 02:48:13 02:52:42 42° 72° (ENE) 02:57:12 437.325
RS-15 18 Nov 03:13:22 03:23:13 29° 40° (NE) 03:32:35 29.354- 29.394
AO-7 18 Nov 03:23:54 03:31:35 39° 100° (E) 03:39:13 .
Gurwin Techsat 1B 18 Nov 03:23:58 03:28:20 27° 292° (WNW) 03:32:43 435.225
BEESAT 2 18 Nov 03:26:31 03:27:31 11° 107° (ESE) 03:28:30 435.950
Oscar 19 18 Nov 03:29:28 03:32:34 16° 295° (WNW) 03:35:39 437.125/150
ITAMSAT 1 18 Nov 03:33:28 03:37:53 28° 97° (E) 03:42:16 435.822/435.867
MOZHAYETS 4 18 Nov 03:36:23 03:40:42 41° 261° (W) 03:45:01
CUBESAT XI-V 18 Nov 03:38:00 03:42:15 39° 73° (ENE) 03:46:32 437.345
M-CUBED/EXP-1 PRIME 18 Nov 03:40:30 03:44:54 53° 290° (WNW) 03:49:24 437.505
BEESAT 3 18 Nov 03:58:13 04:02:10 68° 300° (WNW) 04:06:09 437.485
ISS 18 Nov 04:05:40 04:05:49 10° 25° (NNE) 04:05:58 437.550
KKS-1 18 Nov 04:18:53 04:22:30 25° 70° (ENE) 04:26:09 437.445
BEESAT 18 Nov 04:20:04 04:23:26 19° 265° (W) 04:26:49 436.000
ITUPSAT 1 18 Nov 04:27:40 04:30:39 16° 266° (W) 04:33:39 437.325
STARS 18 Nov 04:53:44 04:57:14 23° 69° (ENE) 05:00:43 437.465
YUBILEINY 18 Nov 04:57:39 05:03:40 21° 81° (E) 05:09:42 435.215
BEESAT 2 18 Nov 05:00:52 05:04:43 49° 301° (WNW) 05:08:40 435.950
nSIGHT-1 18 Nov 05:07:22 05:10:22 37° 39° (NE) 05:13:21 .
ITAMSAT 1 18 Nov 05:12:47 05:17:15 29° 291° (WNW) 05:21:40 435.822/435.867
AO-7 18 Nov 05:16:36 05:24:13 41° 296° (WNW) 05:31:51 .
CUBESAT XI-V 18 Nov 05:16:56 05:19:44 16° 267° (W) 05:22:32 437.345
RS-15 18 Nov 05:25:21 05:37:07 83° 244° (WSW) 05:48:14 29.354- 29.394
AO-85 18 Nov 05:29:34 05:33:23 64° 300° (WNW) 05:37:20 145.980
XW-2B 18 Nov 05:33:49 05:33:53 10° 92° (E) 05:33:57 145.730 - 145.750
ISS 18 Nov 05:39:33 05:42:47 70° 41° (NE) 05:46:02 437.550
DOVE 4 18 Nov 05:40:39 05:45:53 86° 283° (WNW) 05:50:51 437.250
LilacSat-2 18 Nov 05:53:49 05:56:51 22° 96° (E) 05:59:54 437.200
KKS-1 18 Nov 05:55:17 05:58:55 25° 264° (W) 06:02:36 437.445
XW-2C 18 Nov 05:56:26 05:59:26 22° 96° (E) 06:02:26 145.795 - 145.815
NUDT-PHONESAT 18 Nov 06:02:24 06:04:52 17° 95° (E) 06:07:19 437.300
XW-2F 18 Nov 06:10:13 06:13:37 31° 98° (E) 06:17:00 145.980 - 146.000
CUTE-I 18 Nov 06:18:36 06:23:31 36° 98° (E) 06:28:22 437.470
STRAND 1 18 Nov 06:20:58 06:24:53 22° 68° (ENE) 06:28:48 437.568
STARS 18 Nov 06:29:42 06:33:24 26° 263° (W) 06:37:07 437.465
KAITUO 1B 18 Nov 06:44:08 06:47:53 70° 101° (E) 06:51:38 145.475/437.950
nSIGHT-1 18 Nov 06:44:30 06:46:20 14° 233° (SW) 06:48:09 .
XW-2D 18 Nov 06:49:47 06:53:32 63° 284° (WNW) 06:57:17 145.860 - 145.880
FO-29 18 Nov 06:50:26 06:53:16 13° 57° (ENE) 06:56:13 435.910
YUBILEINY 18 Nov 06:50:52 06:59:32 68° 278° (W) 07:08:19 435.215
SEEDS 18 Nov 06:53:53 06:56:09 14° 93° (E) 06:58:24 437.485
XW-2B 18 Nov 07:04:37 07:08:11 41° 285° (WNW) 07:11:47 145.730 - 145.750
SO-50 18 Nov 07:07:03 07:10:18 18° 50° (NE) 07:13:33 436.795
HO-68 18 Nov 07:07:08 07:13:53 42° 100° (E) 07:20:35 435.675
LilacSat-2 18 Nov 07:28:11 07:30:57 19° 289° (WNW) 07:33:44 437.200
XW-2C 18 Nov 07:30:41 07:33:26 19° 289° (WNW) 07:36:11 145.795 - 145.815
NUDT-PHONESAT 18 Nov 07:35:39 07:38:38 23° 288° (WNW) 07:41:37 437.300
UWE-3 18 Nov 07:38:39 07:42:01 24° 96° (E) 07:45:21 435.000/436.395/437.385
ZACube-1 18 Nov 07:38:52 07:40:08 11° 93° (E) 07:41:22 437.345
RS-15 18 Nov 07:41:37 07:47:31 16° 262° (W) 07:53:20 29.354- 29.394
XW-2F 18 Nov 07:45:24 07:47:24 14° 291° (WNW) 07:49:25 145.980 - 146.000
CUTE 1.7 + AOD 2 18 Nov 07:50:20 07:54:33 64° 284° (WNW) 07:58:47 437.475
CUTE-I 18 Nov 07:59:03 08:03:18 25° 293° (WNW) 08:07:32 437.470
STRAND 1 18 Nov 07:59:04 08:03:46 36° 262° (W) 08:08:31 437.568
CUBEBUG 2 18 Nov 08:10:09 08:14:17 68° 284° (WNW) 08:18:23 437.445
XW-2A 18 Nov 08:18:34 08:21:55 84° 102° (ESE) 08:25:17 145.665 - 145.685
SEEDS 18 Nov 08:28:00 08:31:55 38° 286° (WNW) 08:35:50 437.485
AO-73 18 Nov 08:29:43 08:33:39 43° 99° (E) 08:37:37 145.935
FO-29 18 Nov 08:30:45 08:36:59 85° 76° (ENE) 08:44:08 435.910
AAUSAT CUBESAT 2 18 Nov 08:45:19 08:49:26 57° 284° (WNW) 08:53:31 437.432
SO-50 18 Nov 08:46:29 08:50:57 46° 245° (WSW) 08:55:28 436.795
Oscar 11 18 Nov 08:50:02 08:54:15 51° 100° (E) 08:58:27 .
HO-68 18 Nov 08:55:11 09:01:21 32° 295° (WNW) 09:07:30 435.675
YUBILEINY 18 Nov 08:57:47 08:58:02 10° 298° (WNW) 08:58:16 435.215
ZACube-1 18 Nov 09:12:39 09:16:35 44° 286° (WNW) 09:20:32 437.345
UWE-3 18 Nov 09:15:12 09:18:19 21° 290° (WNW) 09:21:26 435.000/436.395/437.385
UNISAT 6 18 Nov 09:37:52 09:42:30 80° 77° (ENE) 09:47:03 437.425
TIGRISAT 18 Nov 09:43:11 09:47:49 84° 79° (E) 09:52:23 435.000
DELFI C3 18 Nov 09:48:18 09:52:09 45° 99° (E) 09:55:58 145.870
Max Valier Satellite 18 Nov 10:02:46 10:06:19 46° 99° (E) 10:09:50 145.860
PRISM 18 Nov 10:05:01 10:09:00 53° 74° (ENE) 10:13:01 437.425
AO-73 18 Nov 10:07:50 10:09:28 12° 293° (WNW) 10:11:07 145.935
EO-88 18 Nov 10:09:15 10:12:39 37° 98° (E) 10:16:03 145.990 - 145.960
FO-29 18 Nov 10:20:36 10:23:01 12° 274° (W) 10:25:32 435.910
Oscar 11 18 Nov 10:28:22 10:29:53 12° 294° (WNW) 10:31:24 .
AIST 2D 18 Nov 10:34:08 10:37:04 26° 73° (ENE) 10:40:00 435.315
PCSat 18 Nov 10:35:24 10:40:42 52° 61° (ENE) 10:45:57 145.827
LO-87 18 Nov 10:46:49 10:47:42 11° 93° (E) 10:48:34 145.935 - 145.965
QB50P2 18 Nov 10:46:53 10:49:36 17° 68° (ENE) 10:52:19 145.880/145.840
ESTCUBE 1 18 Nov 11:07:59 11:11:07 18° 94° (E) 11:14:15 437.505/2401.250
FALCONSAT 3 18 Nov 11:09:51 11:13:20 40° 158° (SSE) 11:16:49 435.103
DELFI C3 18 Nov 11:25:20 11:26:25 11° 293° (WNW) 11:27:29 145.870
DUCHIFAT 1 18 Nov 11:40:26 11:44:30 49° 74° (ENE) 11:48:34 145.980
EO-79 18 Nov 11:43:21 11:47:35 73° 76° (ENE) 11:51:50 145.935-145.965
EO-88 18 Nov 11:45:00 11:45:53 11° 292° (WNW) 11:46:47 145.990 - 145.960
NANOSAT C BR1 18 Nov 11:48:53 11:53:07 74° 75° (ENE) 11:57:20 145.865
